TimeCDT,TemperatureF,Dew PointF,Humidity,Sea Level PressureIn,VisibilityMPH,Wind Direction,Wind SpeedMPH,Gust SpeedMPH,PrecipitationIn,Events,Conditions,WindDirDegrees,DateUTC
12:21 AM,73.9,62.1,66,30.03,10.0,West,8.1,-,N/A,Thunderstorm,Thunderstorm,260,2013-07-15 05:21:00
12:53 AM,73.9,62.1,66,30.03,10.0,NNW,4.6,-,N/A,Thunderstorm,Thunderstorm,330,2013-07-15 05:53:00
1:10 AM,72.0,63.0,73,30.05,10.0,NNW,4.6,-,N/A,,Scattered Clouds,330,2013-07-15 06:10:00
1:53 AM,71.1,63.0,75,30.01,10.0,WNW,5.8,-,N/A,,Mostly Cloudy,300,2013-07-15 06:53:00
2:50 AM,71.6,62.6,73,30.04,10.0,West,8.1,-,N/A,Thunderstorm,Thunderstorm,260,2013-07-15 07:50:00
2:53 AM,71.1,63.0,75,30.02,10.0,West,6.9,-,N/A,Thunderstorm,Thunderstorm,260,2013-07-15 07:53:00
3:36 AM,66.9,63.0,87,30.08,2.0,SSW,11.5,29.9,0.12,Rain-Thunderstorm,Heavy Thunderstorms and Rain,200,2013-07-15 08:36:00
3:40 AM,66.9,63.0,87,30.07,5.0,WSW,13.8,-,0.21,Rain-Thunderstorm,Thunderstorms and Rain,240,2013-07-15 08:40:00
3:53 AM,66.9,63.0,87,30.04,6.0,West,10.4,-,0.28,Rain-Thunderstorm,Thunderstorms and Rain,280,2013-07-15 08:53:00
4:53 AM,66.0,63.0,90,30.04,9.0,NW,6.9,-,0.06,Rain-Thunderstorm,Light Thunderstorms and Rain,310,2013-07-15 09:53:00
5:53 AM,66.0,64.0,93,30.06,10.0,NNW,5.8,-,0.01,Thunderstorm,Thunderstorm,340,2013-07-15 10:53:00
6:17 AM,66.9,64.0,90,30.09,10.0,NW,5.8,-,N/A,,Overcast,310,2013-07-15 11:17:00
6:53 AM,66.9,64.0,90,30.06,10.0,NNW,6.9,-,N/A,,Overcast,330,2013-07-15 11:53:00
7:53 AM,66.9,64.9,93,30.07,10.0,North,9.2,-,N/A,,Overcast,10,2013-07-15 12:53:00
8:53 AM,70.0,64.9,84,30.08,10.0,North,9.2,-,N/A,,Overcast,10,2013-07-15 13:53:00
9:53 AM,71.1,66.0,84,30.09,10.0,NNE,8.1,-,N/A,,Overcast,30,2013-07-15 14:53:00
10:35 AM,73.0,66.9,81,30.11,10.0,NE,5.8,-,N/A,,Overcast,40,2013-07-15 15:35:00
10:53 AM,75.0,66.9,76,30.09,10.0,East,6.9,-,N/A,,Overcast,100,2013-07-15 15:53:00
11:53 AM,78.1,68.0,71,30.08,10.0,SE,15.0,20.7,N/A,,Overcast,130,2013-07-15 16:53:00
12:53 PM,82.0,66.0,58,30.08,10.0,SE,21.9,28.8,N/A,,Overcast,140,2013-07-15 17:53:00
1:53 PM,82.0,64.9,56,30.10,10.0,SSE,19.6,-,N/A,,Overcast,160,2013-07-15 18:53:00
2:53 PM,80.1,64.9,60,30.10,10.0,South,16.1,24.2,N/A,,Overcast,180,2013-07-15 19:53:00
3:53 PM,80.1,64.9,60,30.10,10.0,South,13.8,-,N/A,,Overcast,180,2013-07-15 20:53:00
4:53 PM,79.0,64.9,62,30.10,10.0,South,10.4,-,N/A,,Overcast,180,2013-07-15 21:53:00
5:53 PM,78.1,64.0,62,30.09,10.0,SSW,5.8,-,N/A,,Overcast,210,2013-07-15 22:53:00
6:53 PM,78.1,64.0,62,30.08,10.0,South,8.1,-,N/A,,Overcast,190,2013-07-15 23:53:00
7:53 PM,77.0,64.0,64,30.09,10.0,Calm,Calm,-,N/A,,Mostly Cloudy,0,2013-07-16 00:53:00
8:53 PM,75.0,66.0,73,30.10,10.0,NNW,3.5,-,N/A,,Mostly Cloudy,330,2013-07-16 01:53:00
9:53 PM,73.9,66.0,76,30.12,10.0,North,4.6,-,N/A,,Overcast,360,2013-07-16 02:53:00
10:53 PM,75.0,66.9,76,30.14,10.0,Calm,Calm,-,0.00,Rain,Light Rain,0,2013-07-16 03:53:00
11:53 PM,73.0,68.0,84,30.16,10.0,ENE,4.6,-,0.00,,Overcast,60,2013-07-16 04:53:00